Location: *
(44.3683°N, 6.6958°E)
Time: 14:16:35
(UTC+00:00)

STARLINK-51 - Pass Details

Date: 14 October 2019
Orbit: 548 x 551 km, 53.0° (Epoch: 18 November)

Event Time Altitude Azimuth Distance (km) Brightness Sun altitude
Rises 17:23:21 0° 231° (SW) 2,704 8.2 -6.5°
Reaches altitude 10° 17:25:35 10° 230° (SW) 1,814 7.2 -6.9°
Maximum altitude 17:29:42 78° 144° (SE) 564 3.6 -7.6°
Drops below altitude 10° 17:33:51 10° 58° (ENE) 1,825 5.7 -8.3°
Enters shadow 17:34:17 - 58° (ENE) 1,997 5.9 -8.4°
